APAMA OPSD-OPGT

Flight info

Callsign APAMA
Flight time 0h 48m
Altitude 12000
Route GT
Aircraft C172/L-SFG/C

Departure

Time 2026-05-06 11:26
Airport Skardu International Airport (OPSD)

Arrival

Time 2026-05-06 12:15
Airport Gilgit Airport (OPGT)
Time Latitude Longitude Altitude Speed Heading
2026-05-06 11:17 35.32837 75.52968 7319 ft 0 kts 242°
2026-05-06 11:22 35.32837 75.52967 7319 ft 1 kts 242°
2026-05-06 11:22 35.32829 75.52961 7319 ft 0 kts 186°
2026-05-06 11:22 35.32823 75.52955 7319 ft 2 kts 260°
2026-05-06 11:22 35.32848 75.52970 7319 ft 11 kts 95°
2026-05-06 11:23 35.32853 75.53033 7319 ft 3 kts 86°
2026-05-06 11:23 35.32854 75.53053 7319 ft 6 kts 86°
2026-05-06 11:23 35.32857 75.53074 7319 ft 8 kts 69°
2026-05-06 11:23 35.32879 75.53119 7319 ft 0 kts 55°
2026-05-06 11:24 35.32879 75.53120 7319 ft 0 kts 55°
2026-05-06 11:24 35.32894 75.53145 7319 ft 9 kts 44°
2026-05-06 11:24 35.32907 75.53148 7319 ft 0 kts 323°
2026-05-06 11:25 35.32973 75.53103 7319 ft 32 kts 332°
2026-05-06 11:25 35.33275 75.52913 7327 ft 62 kts 332°
2026-05-06 11:25 35.33609 75.52634 7467 ft 60 kts 324°
2026-05-06 11:25 35.33985 75.52405 7572 ft 64 kts 338°
2026-05-06 11:26 35.34391 75.52190 7701 ft 64 kts 334°
2026-05-06 11:26 35.34808 75.51937 7831 ft 65 kts 333°
2026-05-06 11:26 35.35222 75.51674 7943 ft 68 kts 327°
2026-05-06 11:26 35.35510 75.51422 8023 ft 71 kts 327°
2026-05-06 11:27 35.35695 75.51272 8040 ft 76 kts 332°
2026-05-06 11:27 35.36247 75.50994 8069 ft 91 kts 340°
2026-05-06 11:27 35.36855 75.50695 8203 ft 91 kts 338°
2026-05-06 11:27 35.37429 75.50390 8352 ft 90 kts 336°
2026-05-06 11:28 35.37980 75.50032 8494 ft 90 kts 328°
2026-05-06 11:28 35.38513 75.49633 8648 ft 87 kts 335°
2026-05-06 11:28 35.39087 75.49356 8744 ft 91 kts 338°
2026-05-06 11:28 35.39649 75.48982 8822 ft 95 kts 328°
2026-05-06 11:29 35.40256 75.48636 8917 ft 96 kts 344°
2026-05-06 11:29 35.40855 75.48320 9035 ft 94 kts 331°
2026-05-06 11:29 35.41407 75.47888 9135 ft 94 kts 328°
2026-05-06 11:29 35.41966 75.47476 9242 ft 93 kts 333°
2026-05-06 11:30 35.42541 75.47093 9324 ft 96 kts 325°
2026-05-06 11:30 35.43050 75.46559 9413 ft 96 kts 321°
2026-05-06 11:30 35.43607 75.46101 9504 ft 96 kts 324°
2026-05-06 11:30 35.44116 75.45582 9622 ft 94 kts 320°
2026-05-06 11:31 35.44578 75.45011 9711 ft 95 kts 315°
2026-05-06 11:31 35.45065 75.44449 9767 ft 99 kts 317°
2026-05-06 11:31 35.45543 75.43833 9828 ft 101 kts 313°
2026-05-06 11:31 35.46002 75.43171 9896 ft 102 kts 310°
2026-05-06 11:32 35.46416 75.42465 9980 ft 102 kts 301°
2026-05-06 11:32 35.46727 75.41676 10051 ft 103 kts 295°
2026-05-06 11:32 35.46972 75.40853 10128 ft 103 kts 288°
2026-05-06 11:32 35.47201 75.40028 10226 ft 100 kts 281°
2026-05-06 11:33 35.47171 75.39164 10257 ft 107 kts 257°
2026-05-06 11:33 35.47055 75.38232 10245 ft 113 kts 275°
2026-05-06 11:33 35.47294 75.37315 10257 ft 113 kts 302°
2026-05-06 11:33 35.47796 75.36599 10334 ft 109 kts 320°
2026-05-06 11:34 35.48350 75.35990 10397 ft 108 kts 321°
2026-05-06 11:34 35.49002 75.35479 10342 ft 116 kts 334°
2026-05-06 11:34 35.49777 75.35140 10308 ft 118 kts 348°
2026-05-06 11:34 35.50576 75.34998 10321 ft 117 kts 354°
2026-05-06 11:35 35.51373 75.34962 10384 ft 113 kts 359°
2026-05-06 11:35 35.52171 75.34946 10366 ft 116 kts
2026-05-06 11:35 35.52972 75.34862 10388 ft 115 kts 352°
2026-05-06 11:35 35.53756 75.34717 10428 ft 113 kts 351°
2026-05-06 11:36 35.54543 75.34535 10400 ft 117 kts 349°
2026-05-06 11:36 35.55333 75.34391 10462 ft 112 kts 353°
2026-05-06 11:36 35.56121 75.34292 10466 ft 114 kts 354°
2026-05-06 11:36 35.56903 75.34149 10571 ft 111 kts 347°
2026-05-06 11:37 35.57597 75.33821 10726 ft 106 kts 336°
2026-05-06 11:37 35.58247 75.33291 10680 ft 118 kts 320°
2026-05-06 11:37 35.58541 75.32404 10738 ft 120 kts 270°
2026-05-06 11:37 35.58503 75.31372 10806 ft 119 kts 270°
2026-05-06 11:38 35.58491 75.30394 10922 ft 116 kts 270°
2026-05-06 11:38 35.58448 75.29347 10858 ft 126 kts 267°
2026-05-06 11:38 35.58433 75.28242 10830 ft 128 kts 274°
2026-05-06 11:38 35.58477 75.27128 10790 ft 132 kts 276°
2026-05-06 11:39 35.58575 75.25997 10721 ft 136 kts 277°
2026-05-06 11:39 35.58679 75.24826 10620 ft 140 kts 277°
2026-05-06 11:39 35.58793 75.23672 10697 ft 130 kts 279°
2026-05-06 11:39 35.58919 75.22603 10803 ft 124 kts 280°
2026-05-06 11:40 35.59042 75.21557 10776 ft 129 kts 277°
2026-05-06 11:40 35.59141 75.20451 10748 ft 131 kts 278°
2026-05-06 11:40 35.59256 75.19322 10701 ft 133 kts 280°
2026-05-06 11:40 35.59446 75.18214 10685 ft 133 kts 286°
2026-05-06 11:41 35.59731 75.17115 10624 ft 135 kts 291°
2026-05-06 11:41 35.60111 75.16056 10597 ft 135 kts 294°
2026-05-06 11:41 35.60333 75.14937 10552 ft 136 kts 277°
2026-05-06 11:41 35.60373 75.13779 10541 ft 135 kts 269°
2026-05-06 11:42 35.60253 75.12633 10510 ft 136 kts 259°
2026-05-06 11:42 35.60051 75.11502 10509 ft 134 kts 258°
2026-05-06 11:42 35.59851 75.10384 10497 ft 134 kts 261°
2026-05-06 11:42 35.59751 75.09243 10445 ft 136 kts 274°
2026-05-06 11:43 35.60071 75.08117 10269 ft 143 kts 304°
2026-05-06 11:43 35.60741 75.07264 10296 ft 135 kts 327°
2026-05-06 11:43 35.61576 75.06794 10285 ft 134 kts 339°
2026-05-06 11:44 35.63003 75.05629 10421 ft 126 kts 297°
2026-05-06 11:44 35.63123 75.04524 10329 ft 134 kts 264°
2026-05-06 11:44 35.62973 75.03392 10316 ft 134 kts 260°
2026-05-06 11:44 35.62739 75.02291 10310 ft 134 kts 253°
2026-05-06 11:45 35.62494 75.01145 10154 ft 143 kts 262°
2026-05-06 11:45 35.62531 74.99961 10222 ft 132 kts 283°
2026-05-06 11:45 35.62720 74.98920 10357 ft 123 kts 286°
2026-05-06 11:45 35.62981 74.97914 10376 ft 125 kts 290°
2026-05-06 11:46 35.63300 74.96889 10323 ft 131 kts 292°
2026-05-06 11:46 35.63666 74.95844 10273 ft 134 kts 297°
2026-05-06 11:46 35.63971 74.95171 10273 ft 133 kts 302°
2026-05-06 11:46 35.64486 74.94256 10292 ft 130 kts 310°
2026-05-06 11:47 35.65149 74.93481 10259 ft 132 kts 321°
2026-05-06 11:47 35.65924 74.92870 10234 ft 133 kts 335°
2026-05-06 11:47 35.66782 74.92500 10286 ft 127 kts 345°
2026-05-06 11:47 35.67563 74.91997 10296 ft 127 kts 322°
2026-05-06 11:48 35.68186 74.91242 10338 ft 126 kts 311°
2026-05-06 11:48 35.68738 74.90370 10285 ft 131 kts 306°
2026-05-06 11:48 35.69253 74.89443 10300 ft 130 kts 303°
2026-05-06 11:48 35.69694 74.88485 10351 ft 127 kts 298°
2026-05-06 11:49 35.70120 74.87549 10412 ft 124 kts 301°
2026-05-06 11:49 35.70564 74.86630 10429 ft 126 kts 301°
2026-05-06 11:49 35.70972 74.85663 10421 ft 128 kts 294°
2026-05-06 11:49 35.71225 74.84611 10455 ft 127 kts 280°
2026-05-06 11:50 35.71316 74.83545 10487 ft 127 kts 276°
2026-05-06 11:50 35.71392 74.82454 10499 ft 128 kts 277°
2026-05-06 11:50 35.71523 74.81365 10504 ft 129 kts 279°
2026-05-06 11:50 35.71632 74.80261 10488 ft 131 kts 275°
2026-05-06 11:51 35.71641 74.79134 10466 ft 133 kts 266°
2026-05-06 11:51 35.71591 74.78009 10488 ft 130 kts 269°
2026-05-06 11:51 35.71693 74.76937 10580 ft 125 kts 287°
2026-05-06 11:51 35.71971 74.75957 10765 ft 110 kts 292°
2026-05-06 11:52 35.72220 74.75196 11113 ft 86 kts 292°
2026-05-06 11:52 35.72424 74.74510 11245 ft 89 kts 290°
2026-05-06 11:52 35.72656 74.73746 11336 ft 92 kts 292°
2026-05-06 11:52 35.72857 74.73050 11564 ft 80 kts 290°
2026-05-06 11:53 35.73079 74.72409 11663 ft 85 kts 297°
2026-05-06 11:53 35.73337 74.71778 11810 ft 82 kts 297°
2026-05-06 11:53 35.73601 74.71193 11952 ft 82 kts 294°
2026-05-06 11:53 35.73801 74.70458 11952 ft 97 kts 284°
2026-05-06 11:54 35.73953 74.69558 11876 ft 115 kts 283°
2026-05-06 11:54 35.74141 74.68549 11829 ft 122 kts 284°
2026-05-06 11:54 35.74352 74.67586 11992 ft 112 kts 289°
2026-05-06 11:54 35.74661 74.66622 11833 ft 129 kts 290°
2026-05-06 11:55 35.75042 74.65594 11766 ft 132 kts 304°
2026-05-06 11:55 35.75576 74.64704 11812 ft 127 kts 303°
2026-05-06 11:55 35.75973 74.63783 11892 ft 121 kts 294°
2026-05-06 11:55 35.76430 74.62897 11871 ft 125 kts 303°
2026-05-06 11:56 35.76832 74.61921 11820 ft 129 kts 295°
2026-05-06 11:56 35.77276 74.60978 11868 ft 125 kts 307°
2026-05-06 11:56 35.77838 74.60191 11928 ft 121 kts 314°
2026-05-06 11:56 35.78440 74.59438 11916 ft 124 kts 315°
2026-05-06 11:57 35.79075 74.58703 11897 ft 126 kts 318°
2026-05-06 11:57 35.79747 74.58036 11906 ft 126 kts 322°
2026-05-06 11:57 35.80455 74.57372 11880 ft 128 kts 323°
2026-05-06 11:57 35.81152 74.56713 11924 ft 125 kts 321°
2026-05-06 11:58 35.81804 74.55996 11903 ft 127 kts 314°
2026-05-06 11:58 35.82381 74.55174 11919 ft 126 kts 309°
2026-05-06 11:58 35.82912 74.54335 11972 ft 122 kts 307°
2026-05-06 11:58 35.83400 74.53479 11990 ft 123 kts 304°
2026-05-06 11:59 35.83902 74.52611 11985 ft 125 kts 306°
2026-05-06 11:59 35.84374 74.51708 11987 ft 125 kts 300°
2026-05-06 11:59 35.84756 74.50756 11981 ft 126 kts 293°
2026-05-06 11:59 35.85067 74.49735 11973 ft 127 kts 294°
2026-05-06 12:00 35.85492 74.48776 11965 ft 127 kts 302°
2026-05-06 12:00 35.85987 74.47875 11970 ft 127 kts 305°
2026-05-06 12:00 35.86474 74.46982 11971 ft 127 kts 303°
2026-05-06 12:00 35.86929 74.46051 11972 ft 127 kts 299°
2026-05-06 12:01 35.87347 74.45092 11971 ft 127 kts 298°
2026-05-06 12:01 35.87753 74.44130 11973 ft 127 kts 296°
2026-05-06 12:01 35.88107 74.43131 11970 ft 127 kts 293°
2026-05-06 12:01 35.88511 74.42160 11960 ft 127 kts 301°
2026-05-06 12:02 35.88950 74.41209 11960 ft 127 kts 298°
2026-05-06 12:02 35.89347 74.40238 11964 ft 127 kts 296°
2026-05-06 12:02 35.89778 74.39288 11958 ft 127 kts 300°
2026-05-06 12:02 35.90181 74.38319 11864 ft 124 kts 295°
2026-05-06 12:03 35.90608 74.37410 11405 ft 119 kts 309°
2026-05-06 12:03 35.91233 74.36654 10788 ft 134 kts 320°
2026-05-06 12:03 35.92075 74.35918 9881 ft 156 kts 328°
2026-05-06 12:03 35.92779 74.35064 9550 ft 136 kts 281°
2026-05-06 12:04 35.92374 74.34200 9209 ft 123 kts 202°
2026-05-06 12:04 35.91536 74.34189 8819 ft 121 kts 169°
2026-05-06 12:04 35.90726 74.34561 8269 ft 131 kts 149°
2026-05-06 12:04 35.90042 74.35237 7969 ft 118 kts 133°
2026-05-06 12:05 35.89679 74.36038 7797 ft 106 kts 102°
2026-05-06 12:05 35.89490 74.36963 7504 ft 113 kts 100°
2026-05-06 12:05 35.89726 74.37795 7493 ft 104 kts 40°
2026-05-06 12:05 35.90419 74.38028 7413 ft 99 kts 349°
2026-05-06 12:06 35.91009 74.37521 7005 ft 109 kts 331°
2026-05-06 12:06 35.91694 74.37104 6607 ft 112 kts 329°
2026-05-06 12:06 35.92258 74.36447 6223 ft 113 kts 290°
2026-05-06 12:06 35.92152 74.35556 6113 ft 103 kts 233°
2026-05-06 12:07 35.91576 74.35331 6335 ft 93 kts 158°
2026-05-06 12:07 35.91051 74.35917 6244 ft 106 kts 133°
2026-05-06 12:07 35.90794 74.36742 6173 ft 107 kts 73°
2026-05-06 12:07 35.91274 74.37119 6394 ft 91 kts 342°
2026-05-06 12:08 35.91833 74.36574 6013 ft 113 kts 328°
2026-05-06 12:08 35.92302 74.35819 5606 ft 113 kts 283°
2026-05-06 12:08 35.92186 74.34973 5543 ft 91 kts 239°
2026-05-06 12:08 35.91711 74.34575 5561 ft 84 kts 187°
2026-05-06 12:09 35.91278 74.34854 5742 ft 73 kts 109°
2026-05-06 12:09 35.91382 74.35494 5735 ft 85 kts 44°
2026-05-06 12:09 35.91911 74.35571 5549 ft 81 kts 334°
2026-05-06 12:09 35.92180 74.35036 5335 ft 74 kts 286°
2026-05-06 12:10 35.92157 74.34374 4945 ft 80 kts 256°
2026-05-06 12:10 35.91986 74.33833 4981 ft 75 kts 244°
2026-05-06 12:10 35.91614 74.33420 5206 ft 73 kts 176°
2026-05-06 12:10 35.91295 74.33853 5418 ft 73 kts 97°
2026-05-06 12:11 35.91325 74.34501 5487 ft 73 kts 68°
2026-05-06 12:11 35.91737 74.34901 5398 ft 89 kts 10°
2026-05-06 12:11 35.92134 74.34448 5047 ft 97 kts 271°
2026-05-06 12:11 35.91939 74.33584 5069 ft 100 kts 250°
2026-05-06 12:12 35.91572 74.32936 5375 ft 92 kts 206°
2026-05-06 12:12 35.91056 74.33223 5618 ft 85 kts 116°
2026-05-06 12:12 35.90830 74.33874 5866 ft 86 kts 104°
2026-05-06 12:12 35.90644 74.34622 6090 ft 92 kts 101°
2026-05-06 12:13 35.90543 74.35389 6247 ft 83 kts 99°
2026-05-06 12:13 35.90570 74.36065 6279 ft 82 kts 66°
2026-05-06 12:13 35.91008 74.36329 6104 ft 78 kts 344°
2026-05-06 12:13 35.91542 74.36244 5806 ft 74 kts 352°
2026-05-06 12:14 35.92005 74.35937 5586 ft 75 kts 308°
2026-05-06 12:14 35.92208 74.35326 5313 ft 77 kts 289°
2026-05-06 12:14 35.92229 74.34674 5008 ft 76 kts 258°
2026-05-06 12:14 35.92069 74.34078 4810 ft 67 kts 251°
2026-05-06 12:15 35.91950 74.33632 4785 ft 41 kts 256°
2026-05-06 12:15 35.91881 74.33373 4785 ft 24 kts 251°
2026-05-06 12:15 35.91844 74.33229 4785 ft 12 kts 252°
2026-05-06 12:15 35.91811 74.33110 4785 ft 20 kts 251°
2026-05-06 12:16 35.91772 74.32968 4785 ft 14 kts 250°
2026-05-06 12:16 35.91736 74.32835 4785 ft 31 kts 251°
2026-05-06 12:16 35.91689 74.32635 4785 ft 16 kts 259°
2026-05-06 12:16 35.91670 74.32592 4785 ft 4 kts 123°
2026-05-06 12:17 35.91679 74.32625 4785 ft 1 kts 71°
2026-05-06 12:17 35.91695 74.32681 4785 ft 16 kts 72°
2026-05-06 12:17 35.91747 74.32872 4785 ft 26 kts 73°
2026-05-06 12:17 35.91792 74.33039 4785 ft 15 kts 72°
2026-05-06 12:18 35.91839 74.33095 4785 ft 17 kts
2026-05-06 12:18 35.91857 74.33110 4785 ft 0 kts 150°